Flag for U.S.A. Weather past 2 weeks in Richmond, Virginia, U.S.A.

Now
44 °F

Broken clouds.


Feels Like: 39 °F
Forecast: 30 / 47 °F
Wind: 10 mph from Northeast

Location: Richmond International Airport

Current Time: Mar 2, 2015 at 11:58:04 AM

Latest Report: Mar 2, 2015 at 10:54 AM


Visibility: 8 mi

Pressure: 30.27 "Hg

Humidity: 76%

Dew point: 37 °F

Location of RichmondLocation

Historic Weather in Richmond — Graph

°F

Richmond temperature yesterday

Maximum temperature yesterday: 33 °F (at 8:54 PM)
Minimum temperature yesterday: 23 °F (at 2:54 AM)
Average temperature yesterday: 29 °F

Past Weeks' High & Low Weather Summary

 TemperatureHumidityPressure
High50 °F (Feb 22, 2:54 PM)100% (Feb 22, 1:02 AM)30.87 "Hg (Feb 22, 1:02 AM)
Low5 °F (Feb 20, 4:54 AM)21% (Feb 15, 3:54 PM)29.73 "Hg (Feb 18, 3:54 PM)
Average27 °F60%30.24 "Hg
* Reported Feb 15 10:54 AM — Mar 2 10:54 AM, Richmond, Weather by CustomWeather, © 2015

Note: Actual official high and low records may vary slightly from our data, if they occured in-between our weather recording intervals... More about our weather records

Advertising

Richmond weather history for previous 24 hours

 ConditionsComfort  
Time TempWeatherWind HumidityBarometerVisibility
10:54 AM
Mon, Mar 2
44 °FBroken clouds.10 mph76%30.27 "Hg8 mi
10:01 AM37 °FFog.15 mph87%30.26 "Hg3 mi
8:54 AM40 °FFog.9 mph89%30.21 "Hg4 mi
7:54 AM35 °FFog.5 mph96%30.18 "Hg2 mi
6:54 AM34 °FFog.7 mph97%30.14 "Hg1 mi
5:54 AM34 °FFog.8 mph92%30.14 "Hg1 mi
4:54 AM34 °FFog.6 mph92%30.14 "Hg0 mi
4:02 AM34 °FFog.7 mph93%30.13 "Hg0 mi
3:54 AM33 °FFog.7 mph96%30.14 "Hg0 mi
2:54 AM33 °FFog.3 mph96%30.16 "Hg0 mi
1:54 AM34 °FFog.7 mph92%30.19 "Hg1 mi
12:54 AM33 °FFog.9 mph92%30.20 "Hg1 mi
11:54 PM
Sun, Mar 1
33 °FFog.8 mph96%30.25 "Hg1 mi
10:54 PM33 °FFog.6 mph88%30.29 "Hg2 mi
9:54 PM33 °FFog.6 mph88%30.30 "Hg2 mi
8:54 PM33 °FFog.7 mph88%30.32 "Hg2 mi
7:54 PM32 °FFog.6 mph92%30.33 "Hg1 mi
6:54 PM32 °FIce fog.5 mph92%30.37 "Hg4 mi
5:54 PM32 °FIce fog.6 mph92%30.37 "Hg4 mi
5:01 PM32 °FLight freezing rain. Ice fog.6 mph93%30.37 "Hg1 mi
3:54 PM31 °FLight freezing rain. Ice fog.No wind89%30.43 "Hg2 mi
2:54 PM30 °FLight freezing rain. Ice fog.No wind89%30.46 "Hg2 mi
1:54 PM30 °FLight freezing rain. Ice fog.No wind85%30.50 "Hg2 mi
12:54 PM29 °FLight freezing rain. Ice fog.No wind85%30.54 "Hg2 mi
12:01 PM28 °FLight freezing rain. Ice fog.No wind86%30.55 "Hg2 mi
11:54 AM28 °FLight freezing rain. Ice fog.No wind85%30.57 "Hg2 mi
Weather by CustomWeather, © 2015

See weather overviewHow to use our weather pages